Temp_Advection
nan nan nan nan nan nan nan nan nan nan nan nan nan nan nan nan nan nan nan nan nan nan nan nan nan nan nan nan nan nan nan nan nan nan nan nan nan nan nan nan nan nan nan nan nan nan nan nan nan
nan 0 0 -0 -0 0 -0 -0 -0 -0 0 0 -0 -0 -0 -0 0 -0 0 -0 -0 -0 -0 -0 0 0 -0 -0 -0 0 0 -0 -0 -0 -0 -0 -0 0 0 0 -0 -0 -0 -0 -0 0 0 0 nan
nan 0 -0 -0 0 0 -0 -0 0 0 -0 0 -0 -0 -0 -0 -0 -0 -0 -0 -0 -0 -0 -0 0 0 0 -0 -0 -0 0 0 -0 -0 0 -0 -0 -0 0 0 0 -0 -0 -0 -0 -0 0 0 nan
nan -0 -0 0 0 -0 0 -0 0 0 0 -0 -1 -0 -0 -0 0 -0 -0 -0 -0 -0 0 -0 -0 0 0 0 -0 -0 -0 0 0 0 -0 -0 0 0 -0 0 0 -0 -0 -0 -0 -0 -0 0 nan
nan -0 -0 0 -0 -0 -0 0 0 -0 -0 -0 -0 -0 0 0 0 0 -0 -0 -0 -0 -0 0 0 0 0 0 0 -0 0 0 0 -0 -0 -0 -0 -0 0 0 0 0 -0 -0 -0 -0 -0 -0 nan
nan -0 -0 0 0 -0 0 0 -0 -0 0 -0 -1 -0 0 1 0 -0 0 -0 -0 -0 -0 -0 -0 0 0 0 -0 0 0 -0 0 0 0 -0 -0 -0 -0 -0 0 0 -0 -0 -0 -0 -0 -0 nan
nan -0 -0 0 0 0 0 -0 -0 -0 0 0 -0 -0 0 1 0 -0 -0 -0 0 0 -0 -0 -0 -0 -0 -0 -0 -0 -0 0 0 -0 0 0 0 -0 -0 -0 -0 -0 -0 -0 -0 -0 -0 -0 nan
nan -0 0 -0 0 0 -0 0 -0 -0 -0 1 -0 -1 -0 1 1 0 0 0 0 0 0 0 -0 -0 -0 -0 -0 -0 -0 -0 -0 0 0 0 0 0 0 0 -0 -0 -0 -0 -0 -0 -0 -0 nan
nan -0 0 -0 0 0 0 0 0 0 -1 -1 -0 0 -0 0 1 1 1 0 0 0 0 0 0 -0 -0 -0 -0 -0 -0 -0 -0 -0 0 -0 0 0 0 0 0 0 0 -0 -0 -0 -0 -0 nan
nan -0 -1 -0 -0 0 0 0 -0 -1 -2 -1 -1 1 1 1 1 1 1 0 0 0 0 0 0 0 0 -0 -0 -0 -0 -0 -0 -0 -0 0 0 -0 -0 0 0 0 -0 -0 0 -0 -0 -0 nan
nan -0 -0 0 -0 -1 -1 -1 0 -2 -1 -1 -0 1 1 0 0 0 0 0 0 0 0 0 0 0 0 0 0 0 0 0 0 0 0 0 -0 0 0 -0 -0 -0 0 0 -0 -0 -0 0 nan
nan -0 -0 -0 0 0 -1 -1 -1 -1 -0 0 0 1 1 0 0 0 0 0 0 0 0 0 0 0 0 0 0 0 -0 -0 -0 -0 -0 -0 -0 0 -0 0 0 0 0 -0 -0 -0 -0 -0 nan
nan 0 0 0 -1 -1 -1 -2 -1 -0 0 1 1 0 -1 -0 0 0 0 0 0 0 0 0 0 0 0 0 0 0 -0 -0 -0 -0 -0 -0 -0 -0 -0 -0 -0 0 0 0 0 -0 -0 -0 nan
nan -0 1 1 -1 -1 -1 -0 -0 -1 -0 2 1 -1 0 -0 -0 0 0 0 0 0 0 0 0 0 0 0 0 0 0 -0 -0 -0 -0 -0 -0 -0 -0 -0 -0 -0 -0 0 0 0 -0 -0 nan
nan -0 0 0 -0 -0 -1 -1 -0 -0 -0 -0 0 0 0 0 0 -0 0 0 0 0 0 0 0 0 0 0 0 -0 0 0 0 0 -0 -0 0 0 0 -0 -0 -0 -0 -0 0 0 0 -0 nan
nan -0 0 -0 -0 -0 -1 -0 -0 -0 -1 -1 0 0 0 0 0 0 0 0 0 0 0 0 0 0 0 0 0 0 0 -0 -0 0 0 -0 -0 -0 -0 0 0 1 0 -0 -1 -0 0 0 nan
nan 0 -0 0 0 -0 -0 0 0 -0 -1 -1 -0 0 0 1 0 0 0 0 0 0 0 0 0 1 0 0 0 0 0 0 0 0 0 -0 -0 0 -0 -1 -0 0 0 0 0 -0 -0 -1 nan
nan 0 -0 0 0 -1 -0 -0 0 0 -0 -0 -0 0 0 -0 0 1 1 0 0 0 0 0 -0 -0 0 0 -0 0 0 -0 -0 -0 -0 -0 -0 -0 -0 -0 -1 -1 0 1 0 -0 -0 1 nan
nan -0 -0 -0 -0 -0 -0 -0 0 0 -0 -0 -0 -0 -0 0 0 0 0 0 0 0 0 0 -0 -0 -0 0 -0 0 -0 -0 -0 -0 -0 -0 -0 -0 -0 -0 -0 -0 -0 -0 -0 -1 -1 -0 nan
nan -0 -0 -0 -0 -1 -0 -0 -0 -0 -0 0 -0 -0 -0 -0 0 0 0 0 0 -0 -0 -0 -0 -0 -0 0 -0 -0 -0 -0 -0 -0 -0 -0 -1 -0 -1 -0 -1 -1 -0 -0 -0 -0 -1 -1 nan
nan -0 -0 -0 -0 -0 -1 -0 -0 0 0 0 0 0 0 -0 -0 -0 0 -0 -0 -0 -0 -0 -0 -0 -0 -0 -0 0 0 -0 -0 -1 -1 -1 -1 -1 -1 -0 -1 -1 -1 -1 -1 -0 -0 -2 nan
nan 0 -1 -1 -1 -0 0 0 0 0 0 0 0 1 0 0 -0 -0 -0 -0 -0 -0 -0 -0 0 -0 -0 0 0 -0 -0 -1 -1 -1 -0 -0 -0 -0 -1 -1 -1 -1 -1 -1 -1 -1 -0 -1 nan
nan -0 0 -0 -0 -0 0 -0 0 -0 -0 -0 0 1 1 1 0 -0 -0 -0 -0 -0 -0 -0 -0 -0 -0 -0 -1 -1 -1 -1 -0 -0 -0 -0 -0 -0 -1 -1 -1 -1 -0 -0 -1 -1 -1 -0 nan
nan 0 0 -0 -0 0 0 -0 -0 -1 -1 -1 -0 0 1 1 1 0 -0 -0 -0 -0 -0 -0 -0 -0 -0 -0 -0 -0 -1 -0 -0 -0 -1 -1 -0 -0 -0 -1 -1 -1 -1 -1 -0 -1 -1 -1 nan
nan -2 -0 0 0 -0 -0 -0 -0 -1 -1 -1 -1 -0 0 0 0 -0 -0 -0 -0 -0 -0 -0 -0 -0 -0 -0 -0 -1 -1 -1 -1 -1 -1 -1 -1 -1 -1 -1 -1 -1 -1 -1 -1 -1 -1 -1 nan
nan 0 -1 -0 -0 -0 0 0 -0 -0 0 -0 -0 -0 -0 -0 -0 -0 -0 -0 -0 -0 -0 -0 -0 -0 -0 -0 -1 -1 -1 -1 -1 -1 -1 -1 -1 -1 -1 -0 -0 -0 -0 -1 -1 -1 -1 -1 nan
nan 0 -0 -0 -0 0 0 -0 -0 1 0 0 -0 0 0 -0 0 0 -0 -0 -0 -0 -0 -0 -0 -0 -0 -0 -0 -0 -0 -0 -0 -0 -0 -0 -0 -0 -0 -0 -1 -0 -0 -1 -1 -1 -1 -2 nan
nan 0 -0 0 0 0 0 -0 0 0 0 0 -0 -0 0 0 0 0 0 0 0 -0 -0 -0 -0 -0 -0 -0 -0 -0 -0 -0 -0 -0 -0 -0 -0 -0 -0 -0 -0 -1 -1 -1 -1 -1 -0 -0 nan
nan 0 0 -0 -0 0 0 -0 -1 -1 -1 -1 -1 -1 -0 0 0 0 0 0 0 -0 -0 -0 -0 -0 -0 -0 -0 -0 -0 -0 -0 -0 -0 0 0 -0 -0 -1 -1 -1 -1 -1 -1 -2 -1 1 nan
nan nan nan nan nan nan nan nan nan nan nan nan nan nan nan nan nan nan nan nan nan nan nan nan nan nan nan nan nan nan nan nan nan nan nan nan nan nan nan nan nan nan nan nan nan nan nan nan nan
Wind_Speed
10 12 12 3 1 4 1 3 3 4 4 3 10 11 8 6 3 6 21 22 24 27 25 23 20 16 14 15 16 15 15 16 18 16 15 14 12 12 10 9 10 9 10 13 13 11 11 11 13
9 11 5 3 4 3 4 2 5 4 14 19 14 10 9 5 7 19 24 18 26 26 25 23 20 17 15 15 15 15 15 15 15 15 14 12 12 11 10 10 9 8 9 13 13 13 14 16 16
8 8 2 4 4 2 3 1 7 17 19 4 5 9 6 5 12 25 16 26 26 26 24 23 19 16 14 14 14 14 15 14 14 13 13 12 10 10 10 10 10 10 10 13 14 16 16 17 17
7 1 3 4 1 2 3 4 4 8 2 8 12 7 9 7 13 15 25 25 25 24 23 22 19 14 13 13 12 13 13 14 13 12 11 10 9 8 8 9 10 10 11 12 14 16 17 17 15
3 2 4 4 4 3 5 5 6 3 4 6 3 6 7 11 17 21 23 23 23 23 21 20 19 15 12 11 11 10 10 12 12 11 10 9 7 7 7 8 9 11 12 13 13 14 15 14 12
1 2 5 3 1 3 5 17 13 18 21 22 15 10 6 21 16 19 19 20 19 20 20 20 18 16 14 12 11 9 8 7 8 9 9 9 8 6 6 7 7 9 11 13 14 13 13 11 10
4 4 5 4 5 3 2 3 1 3 14 9 7 4 13 21 19 19 17 17 17 17 18 19 18 17 15 13 11 10 8 7 6 5 6 6 7 7 6 6 7 8 9 10 12 12 12 11 10
2 4 5 2 4 1 2 5 10 11 8 21 5 6 7 23 21 19 18 16 14 14 14 15 17 17 16 14 12 10 9 8 7 6 5 4 4 4 4 5 6 7 8 9 10 11 11 12 12
1 4 3 7 8 5 1 6 12 15 18 21 12 21 22 25 23 21 19 17 15 15 14 13 13 14 14 13 11 10 9 7 6 6 5 4 4 3 4 4 5 6 7 8 9 10 11 12 12
4 3 8 4 7 7 7 11 6 15 17 18 28 22 23 23 21 20 18 16 13 12 14 14 12 11 10 10 9 8 7 6 5 5 4 3 4 4 5 6 6 7 7 8 9 10 11 12 12
5 5 4 1 10 21 13 15 7 18 11 13 18 24 21 19 17 14 13 12 8 7 8 11 11 9 8 7 6 5 3 2 3 4 5 5 5 6 7 7 8 8 9 10 11 12 13 14 15
3 1 4 8 13 16 6 9 15 21 14 23 26 27 24 18 12 9 8 12 13 10 7 7 9 8 7 7 4 3 5 6 3 4 6 7 8 8 9 10 9 10 9 10 12 14 15 17 18
4 5 10 18 14 21 32 23 24 27 25 28 29 28 28 25 20 14 7 8 15 14 11 7 6 6 6 6 5 4 3 6 7 6 6 7 7 7 9 11 13 12 12 11 12 15 16 16 17
8 10 14 18 19 12 25 9 9 15 24 29 30 29 26 24 22 20 14 10 11 13 14 12 9 7 5 3 3 3 2 2 5 4 5 6 8 9 10 11 11 13 15 16 15 15 18 20 21
20 8 6 6 9 14 24 10 9 19 25 33 31 30 29 27 22 23 19 16 10 9 13 15 14 11 9 7 9 10 8 10 9 11 13 12 14 13 15 16 16 15 16 18 19 21 22 23 24
6 5 7 4 9 2 7 4 6 19 27 28 30 29 29 29 28 25 22 19 16 12 8 12 16 15 15 13 12 12 13 11 10 10 11 12 16 19 18 20 19 22 25 26 25 23 24 27 29
5 7 5 4 3 4 6 8 10 16 22 23 27 28 29 27 25 24 24 24 23 21 17 9 11 14 15 12 10 8 7 6 5 5 5 6 12 17 16 20 20 25 27 27 31 31 32 33 30
6 6 2 7 5 7 9 8 11 16 20 23 26 27 27 26 24 21 21 21 22 23 23 19 13 10 8 9 9 8 2 1 6 11 8 10 11 16 14 15 18 21 26 29 31 34 34 35 37
13 7 7 2 8 9 9 14 10 15 16 19 22 26 26 25 20 17 18 18 17 18 18 20 19 12 12 8 5 6 8 9 8 8 8 9 12 13 15 11 12 19 19 23 24 27 32 35 35
8 10 4 7 4 9 9 7 4 13 13 25 26 24 24 22 18 16 16 17 18 18 19 18 18 16 16 13 13 11 12 12 13 12 11 11 11 12 13 13 14 16 17 17 20 24 26 28 28
5 16 8 10 6 9 14 3 6 6 9 15 19 24 22 19 17 15 15 17 16 18 18 17 17 17 17 16 13 11 10 10 8 12 14 16 16 16 16 15 16 16 15 16 18 20 22 24 26
11 10 14 18 13 8 4 6 6 9 10 13 19 24 24 21 17 14 13 14 15 17 16 16 15 14 15 13 12 12 14 15 16 16 15 15 16 17 18 19 20 20 20 19 18 20 21 22 25
16 14 20 18 10 14 6 5 4 13 12 14 18 26 26 22 18 15 12 12 13 13 14 15 14 14 14 13 14 14 14 15 14 13 13 14 16 17 18 19 20 21 22 22 23 22 20 23 25
8 10 11 6 4 6 14 6 5 17 22 18 23 26 30 26 21 16 13 11 11 12 13 15 14 15 15 15 15 16 15 15 14 15 17 18 19 19 20 20 22 23 23 25 25 23 23 24 25
15 20 4 3 4 7 13 6 8 22 20 28 29 30 34 30 25 19 14 11 10 11 13 15 15 14 14 15 16 16 17 17 18 18 20 21 22 22 23 25 25 24 24 24 24 25 26 25 24
22 16 9 9 10 6 10 11 6 19 34 33 36 38 37 31 23 16 13 10 8 9 11 13 13 13 13 14 15 16 17 19 19 20 20 21 22 24 25 25 26 27 27 28 29 28 28 27 25
6 7 9 7 2 4 5 3 5 13 19 27 31 34 38 32 25 20 16 10 8 7 8 10 12 11 11 13 14 14 15 18 19 19 19 21 22 23 24 25 27 27 28 29 30 30 31 31 24
6 8 5 1 7 6 4 3 6 19 19 20 25 32 37 34 29 24 20 16 11 6 6 8 9 9 10 9 11 12 15 19 19 20 21 22 24 26 27 28 29 30 30 30 29 28 27 26 29
2 3 2 4 4 6 4 9 11 22 24 26 30 35 40 39 33 29 25 19 13 9 4 4 6 6 6 6 9 11 14 17 17 18 20 23 25 28 29 30 31 32 32 31 28 29 31 32 34
3 6 5 7 6 2 3 6 15 25 27 36 34 36 40 40 36 32 28 24 17 11 6 2 3 4 5 6 9 10 13 15 15 18 20 23 25 26 28 29 29 30 31 30 30 33 35 37 38
Wind_Direction
337 335 330 333 80 63 319 299 135 68 42 17 108 98 102 44 69 142 146 164 167 160 154 156 153 146 139 125 117 115 119 123 125 124 121 116 111 118 120 127 136 136 137 139 147 142 141 135 129
324 333 342 312 76 88 282 288 41 97 131 102 86 92 59 65 75 132 147 162 163 157 156 157 156 154 147 134 122 118 121 127 130 130 127 120 114 114 114 115 125 128 130 133 136 137 133 128 126
324 341 31 85 82 143 240 13 127 146 158 273 128 58 65 98 115 145 150 153 159 155 156 157 158 160 155 144 132 125 127 130 134 135 134 129 117 110 117 117 120 119 122 136 136 134 133 130 125
335 10 72 85 358 263 255 337 112 143 80 84 119 63 74 117 132 148 149 153 154 150 156 158 160 163 160 152 143 136 132 132 136 138 136 130 123 115 112 118 116 117 127 135 140 142 141 138 136
346 52 49 70 319 351 335 22 138 100 63 59 41 78 74 123 126 143 148 151 151 151 157 159 163 168 165 161 152 142 135 136 137 139 138 136 131 121 119 125 126 126 129 139 146 151 151 151 149
33 78 62 103 64 7 14 73 83 103 98 92 85 89 91 120 112 140 144 145 150 155 158 162 166 172 172 168 160 151 143 137 138 143 145 145 143 137 130 132 135 136 141 145 153 161 167 166 164
134 87 168 139 133 69 128 60 75 151 90 64 132 75 138 136 120 130 139 145 151 156 160 166 171 174 175 174 169 163 157 148 147 148 155 155 152 148 148 148 151 151 154 158 161 169 179 186 189
244 90 118 306 174 139 292 117 108 72 73 124 78 137 171 150 134 127 136 146 155 156 159 165 171 175 177 177 175 174 172 168 165 165 166 174 171 169 172 171 171 172 173 179 181 183 188 197 204
201 63 150 185 151 167 247 118 96 100 102 66 79 143 151 151 152 150 151 155 160 168 169 170 172 173 175 177 178 180 183 186 187 186 185 185 194 201 204 213 212 204 203 206 208 208 210 212 216
115 122 207 212 159 156 164 122 103 89 62 58 78 104 139 153 160 161 165 169 171 173 180 178 180 180 180 181 181 183 190 199 205 212 222 229 227 220 227 226 226 233 239 245 244 241 239 239 238
157 187 203 111 144 138 123 60 90 100 42 59 88 104 123 144 157 169 176 183 184 180 186 194 192 191 192 192 193 191 196 235 254 258 261 262 261 263 254 247 248 249 255 260 261 264 268 267 262
145 163 164 144 137 126 87 95 63 76 99 109 108 106 112 118 124 134 166 192 199 202 185 195 204 211 213 212 212 168 84 53 322 313 304 297 289 281 276 274 272 261 265 271 273 274 277 276 274
125 149 139 141 122 97 102 79 100 84 100 107 110 100 92 90 89 98 120 175 195 201 194 180 188 206 222 226 196 158 79 40 37 40 19 4 354 324 300 295 284 280 278 283 286 285 285 288 291
149 117 127 137 103 112 108 95 85 99 108 98 98 88 84 83 82 91 102 123 178 192 199 194 187 186 198 216 212 225 222 276 295 310 310 296 313 328 332 329 326 307 299 292 287 293 292 290 291
127 87 83 131 106 117 92 27 89 121 108 96 91 89 84 80 79 76 79 88 111 175 200 205 202 201 213 224 220 236 243 260 259 265 267 270 271 273 275 276 286 310 317 311 308 295 290 290 288
97 69 129 247 182 61 94 153 128 132 113 100 98 94 88 81 78 79 81 85 90 108 164 200 209 210 209 217 230 237 239 234 249 263 271 269 269 276 275 276 278 279 277 281 292 302 296 292 290
18 158 167 184 217 119 101 141 171 152 122 115 109 101 94 88 82 78 79 82 85 90 97 134 175 206 214 203 201 164 140 154 204 218 247 262 268 269 277 275 274 277 274 276 278 280 284 288 293
164 131 141 158 172 83 101 127 146 152 130 123 118 109 100 91 83 83 83 82 82 83 86 88 95 100 145 161 137 98 137 324 293 301 319 300 293 282 287 280 279 274 276 271 277 273 278 281 286
140 134 127 112 128 90 126 135 137 145 126 122 120 113 105 97 93 82 79 78 75 75 77 78 81 84 93 112 118 63 45 31 13 13 359 328 308 307 309 319 310 286 286 290 287 284 276 278 285
127 127 107 43 76 89 134 116 120 160 163 146 136 126 118 113 101 88 79 74 73 71 67 67 68 78 77 78 74 70 66 57 50 41 28 21 9 357 352 343 330 320 312 306 305 301 296 292 284
143 165 171 150 100 99 117 59 154 179 173 157 148 136 130 125 114 98 83 72 68 66 63 61 61 61 60 60 66 66 62 60 46 28 18 15 10 6 2 357 352 347 343 338 325 321 318 316 303
197 163 155 146 132 161 220 190 203 169 171 175 156 149 143 137 128 113 93 78 65 61 56 54 54 57 58 56 51 45 43 39 34 29 24 17 8 2 358 355 352 349 346 343 343 338 334 326 315
212 153 163 161 150 133 199 110 227 172 184 180 174 163 156 150 142 124 101 81 77 67 59 53 49 53 51 47 47 47 46 44 36 29 22 18 15 8 3 359 354 348 346 344 340 335 330 329 328
141 118 133 133 80 210 195 157 211 188 187 174 178 174 165 156 146 132 113 94 83 72 60 50 48 57 56 53 51 47 43 37 27 21 15 11 6 3 360 358 354 349 345 342 342 340 335 328 323
154 139 129 162 209 214 156 209 234 198 178 174 171 173 172 162 153 143 130 114 89 72 56 44 41 49 49 47 46 41 36 30 24 19 15 8 5 3 0 357 354 351 348 344 339 336 335 334 329
167 172 169 170 201 173 169 218 221 190 177 174 167 170 170 166 159 152 143 127 105 79 58 41 36 41 41 41 38 34 30 26 22 17 12 8 5 1 358 353 350 350 348 345 343 341 338 334 328
208 208 155 104 1 127 200 333 306 152 154 159 162 165 170 168 165 163 158 150 126 96 66 40 31 35 35 34 28 25 21 18 16 12 6 5 2 360 356 353 350 349 346 344 343 341 341 341 338
199 157 149 342 150 191 239 223 195 159 163 164 168 170 172 172 171 168 168 163 152 126 74 39 23 24 25 24 20 17 14 10 7 3 3 2 0 357 355 354 353 352 351 349 347 344 343 338 329
147 192 111 124 142 166 165 239 169 175 174 175 174 171 173 176 174 174 172 167 160 149 114 47 30 33 33 26 17 10 6 3 0 0 0 0 356 355 355 355 354 354 353 353 348 345 345 341 338
180 190 166 177 201 143 170 256 184 179 181 173 171 171 174 177 177 177 175 171 170 166 155 94 38 23 20 15 11 4 356 359 359 1 1 358 356 356 356 355 355 355 355 354 353 349 345 343 340
Height
1504 1502 1500 1499 1507 1505 1506 1502 1494 1499 1500 1499 1497 1497 1503 1506 1507 1522 1516 1521 1524 1527 1530 1534 1537 1539 1540 1541 1541 1541 1542 1542 1543 1543 1543 1545 1545 1546 1546 1546 1546 1546 1547 1547 1548 1548 1549 1549 1550
1503 1502 1500 1498 1512 1520 1511 1494 1500 1499 1501 1501 1502 1501 1502 1510 1510 1513 1518 1521 1526 1529 1532 1535 1538 1540 1541 1543 1543 1544 1544 1544 1545 1546 1547 1547 1547 1548 1548 1547 1548 1549 1550 1549 1550 1550 1551 1552 1552
1502 1502 1501 1506 1521 1525 1513 1495 1497 1498 1499 1500 1502 1503 1506 1514 1515 1516 1518 1521 1526 1529 1533 1536 1540 1542 1543 1544 1544 1545 1546 1547 1547 1548 1549 1550 1549 1549 1550 1551 1551 1551 1552 1552 1552 1552 1554 1555 1555
1502 1502 1504 1513 1513 1505 1503 1499 1495 1500 1501 1500 1501 1506 1514 1517 1517 1518 1520 1524 1527 1530 1534 1537 1541 1544 1545 1546 1546 1547 1548 1548 1549 1550 1550 1550 1551 1552 1551 1552 1553 1553 1554 1554 1554 1555 1556 1557 1558
1503 1502 1514 1517 1513 1504 1500 1498 1498 1501 1503 1502 1502 1512 1515 1518 1519 1521 1524 1527 1530 1532 1536 1539 1542 1544 1546 1548 1548 1549 1549 1549 1550 1551 1551 1552 1552 1553 1553 1554 1553 1554 1555 1556 1557 1558 1559 1560 1560
1503 1504 1522 1527 1512 1506 1502 1501 1503 1507 1508 1506 1508 1511 1519 1521 1523 1526 1528 1530 1533 1535 1537 1540 1543 1545 1547 1548 1550 1550 1551 1551 1552 1552 1552 1553 1553 1554 1554 1554 1555 1556 1557 1558 1559 1560 1561 1562 1563
1503 1510 1520 1513 1514 1510 1506 1506 1510 1507 1505 1508 1511 1516 1523 1523 1526 1528 1531 1533 1535 1536 1537 1540 1542 1545 1547 1549 1550 1551 1552 1553 1553 1554 1555 1555 1555 1555 1555 1556 1556 1557 1558 1559 1560 1561 1562 1563 1563
1503 1505 1514 1513 1516 1514 1507 1505 1507 1506 1508 1510 1513 1520 1525 1524 1527 1529 1532 1536 1538 1538 1539 1541 1542 1544 1546 1548 1550 1551 1552 1553 1554 1555 1555 1556 1556 1557 1557 1557 1557 1558 1559 1560 1561 1562 1563 1563 1563
1503 1514 1522 1515 1514 1509 1506 1503 1507 1507 1510 1513 1514 1518 1522 1526 1528 1531 1533 1535 1537 1539 1541 1542 1544 1545 1547 1548 1550 1551 1553 1554 1555 1555 1556 1556 1557 1557 1558 1558 1559 1559 1560 1561 1561 1562 1562 1563 1563
1502 1516 1510 1502 1502 1505 1507 1505 1506 1509 1514 1519 1519 1524 1526 1529 1531 1532 1534 1536 1538 1540 1542 1543 1545 1546 1548 1549 1550 1552 1553 1554 1555 1556 1556 1557 1557 1558 1558 1559 1559 1560 1561 1561 1562 1562 1562 1562 1562
1500 1508 1501 1501 1501 1503 1505 1508 1508 1511 1524 1527 1528 1528 1530 1532 1533 1533 1535 1537 1540 1541 1543 1545 1546 1548 1549 1550 1551 1553 1554 1555 1556 1556 1557 1557 1558 1558 1558 1558 1559 1559 1560 1560 1560 1561 1561 1561 1561
1500 1499 1499 1501 1502 1504 1506 1512 1518 1517 1530 1531 1530 1531 1531 1533 1534 1534 1535 1537 1538 1541 1543 1544 1546 1548 1550 1551 1553 1554 1555 1555 1556 1557 1557 1557 1557 1557 1558 1558 1558 1558 1558 1559 1559 1559 1559 1558 1558
1497 1500 1501 1503 1504 1508 1509 1517 1520 1531 1534 1533 1532 1533 1533 1535 1536 1535 1535 1535 1537 1540 1542 1544 1546 1548 1549 1551 1553 1554 1556 1556 1557 1557 1557 1557 1557 1557 1556 1557 1557 1557 1557 1557 1556 1556 1556 1555 1555
1494 1498 1503 1506 1507 1512 1512 1524 1522 1541 1538 1535 1533 1535 1537 1537 1538 1537 1537 1536 1537 1539 1541 1543 1545 1547 1549 1550 1553 1554 1554 1555 1556 1556 1556 1556 1556 1557 1556 1556 1555 1555 1555 1555 1554 1553 1553 1552 1551
1495 1503 1506 1509 1510 1517 1511 1531 1538 1541 1540 1535 1538 1540 1540 1541 1541 1538 1539 1538 1538 1539 1540 1542 1544 1546 1547 1548 1549 1550 1551 1551 1551 1552 1552 1553 1553 1553 1552 1553 1554 1554 1553 1552 1551 1550 1549 1548 1547
1499 1504 1518 1509 1509 1513 1514 1547 1543 1543 1540 1540 1541 1543 1543 1544 1542 1542 1542 1541 1540 1540 1540 1541 1542 1544 1545 1547 1547 1547 1548 1548 1549 1550 1549 1549 1550 1550 1550 1550 1550 1550 1549 1549 1548 1546 1545 1543 1542
1504 1515 1515 1512 1508 1511 1517 1542 1542 1544 1543 1543 1544 1544 1545 1546 1546 1546 1545 1544 1543 1542 1541 1541 1541 1542 1543 1545 1546 1546 1546 1546 1547 1546 1547 1546 1546 1547 1546 1545 1545 1544 1544 1544 1543 1541 1541 1538 1537
1508 1511 1509 1512 1511 1514 1525 1534 1537 1542 1543 1542 1544 1545 1545 1547 1548 1550 1548 1547 1546 1545 1543 1542 1541 1542 1543 1544 1544 1545 1545 1544 1544 1544 1544 1544 1543 1543 1542 1541 1540 1539 1538 1537 1535 1534 1534 1533 1531
1483 1498 1507 1510 1510 1519 1527 1534 1539 1542 1543 1542 1543 1544 1545 1547 1550 1550 1549 1548 1548 1547 1545 1544 1544 1541 1546 1546 1545 1545 1544 1542 1543 1543 1543 1542 1540 1539 1538 1537 1535 1535 1533 1532 1530 1528 1527 1527 1526
1486 1499 1508 1512 1512 1518 1535 1541 1542 1544 1543 1540 1541 1542 1543 1546 1550 1551 1551 1549 1549 1549 1548 1546 1545 1544 1544 1546 1542 1546 1544 1544 1543 1543 1542 1540 1540 1538 1536 1534 1532 1530 1529 1528 1525 1522 1521 1520 1521
1488 1492 1506 1511 1517 1525 1532 1545 1546 1546 1546 1546 1544 1542 1544 1545 1548 1550 1550 1550 1550 1549 1549 1549 1547 1546 1545 1544 1545 1546 1544 1544 1543 1542 1541 1539 1538 1536 1535 1532 1530 1529 1528 1525 1522 1520 1519 1515 1517
1491 1486 1494 1506 1515 1534 1521 1552 1543 1544 1547 1546 1542 1543 1543 1545 1549 1550 1550 1551 1550 1550 1551 1550 1548 1547 1547 1547 1545 1544 1543 1542 1542 1542 1541 1540 1537 1535 1533 1530 1529 1527 1525 1523 1521 1519 1515 1513 1509
1478 1481 1490 1502 1511 1517 1524 1543 1536 1538 1543 1542 1543 1543 1543 1546 1547 1548 1550 1551 1552 1553 1552 1551 1549 1548 1547 1546 1545 1545 1544 1544 1545 1543 1542 1539 1537 1534 1532 1530 1527 1525 1522 1519 1517 1516 1514 1511 1508
1476 1488 1499 1508 1518 1533 1512 1526 1535 1524 1519 1534 1539 1540 1541 1544 1546 1548 1550 1552 1552 1553 1553 1552 1552 1549 1549 1548 1547 1546 1546 1545 1543 1541 1539 1537 1535 1534 1531 1528 1526 1523 1520 1516 1514 1512 1510 1507 1505
1472 1486 1526 1533 1534 1519 1509 1521 1504 1506 1512 1515 1525 1534 1539 1541 1542 1545 1548 1550 1551 1552 1553 1553 1552 1551 1550 1549 1547 1547 1545 1544 1542 1540 1539 1537 1534 1532 1529 1526 1523 1521 1517 1514 1511 1508 1505 1503 1501
1462 1466 1490 1513 1514 1513 1504 1505 1497 1493 1500 1513 1520 1527 1535 1538 1540 1543 1546 1549 1551 1552 1553 1553 1552 1552 1551 1550 1549 1548 1546 1545 1543 1540 1538 1537 1533 1531 1527 1525 1521 1518 1514 1509 1505 1503 1500 1498 1495
1469 1474 1467 1491 1496 1505 1501 1499 1490 1491 1503 1514 1519 1524 1528 1533 1537 1541 1545 1548 1550 1552 1553 1553 1552 1552 1552 1550 1550 1549 1547 1545 1543 1540 1538 1536 1534 1531 1527 1523 1520 1516 1511 1506 1502 1498 1494 1491 1490
1460 1461 1477 1486 1503 1510 1502 1501 1496 1496 1501 1508 1514 1518 1524 1530 1535 1539 1543 1547 1550 1551 1552 1553 1552 1552 1551 1551 1551 1549 1547 1544 1542 1540 1537 1535 1532 1529 1524 1521 1517 1512 1507 1502 1497 1494 1491 1489 1486
1466 1467 1468 1472 1481 1495 1499 1478 1474 1484 1488 1494 1504 1511 1517 1525 1531 1537 1542 1545 1547 1549 1551 1552 1552 1552 1552 1551 1550 1549 1547 1544 1543 1541 1537 1533 1530 1526 1522 1518 1513 1508 1503 1499 1494 1491 1488 1484 1480
1456 1460 1462 1470 1481 1484 1487 1477 1464 1468 1476 1485 1496 1506 1514 1521 1528 1534 1538 1541 1545 1548 1550 1552 1551 1551 1551 1550 1548 1548 1546 1544 1543 1539 1536 1532 1529 1525 1521 1516 1511 1506 1502 1497 1492 1488 1484 1480 1475